WAT706 RJNS-PANC

Flight info

Callsign WAT706
Flight time 7h 2m
Altitude 35000
Route XAC Y233 UTIBO Y803 POROT A590 POXED/N0477F370 A590 PTZGR/N0492F390 A590 HAMND AMOTT4
Aircraft B77L/H-SDE1E2E3FGHIJ2J3J4J5M1RWXY/LB1D1

Departure

Time 2026-04-15 20:21
Airport Mount Fuji Shizuoka Airport (RJNS)

Arrival

Time 2026-04-16 03:24
Airport Ted Stevens Anchorage International Airport (PANC)
Time Latitude Longitude Altitude Speed Heading
2026-04-15 19:55 34.79752 138.17732 453 ft 0 kts 202°
2026-04-15 20:14 34.79756 138.17734 453 ft 2 kts 202°
2026-04-15 20:14 34.79778 138.17745 437 ft 3 kts 202°
2026-04-15 20:14 34.79801 138.17756 452 ft 3 kts 162°
2026-04-15 20:14 34.79820 138.17740 451 ft 3 kts 115°
2026-04-15 20:15 34.79828 138.17716 453 ft 1 kts 111°
2026-04-15 20:15 34.79829 138.17716 453 ft 0 kts 111°
2026-04-15 20:16 34.79828 138.17716 453 ft 1 kts 111°
2026-04-15 20:16 34.79811 138.17771 451 ft 21 kts 111°
2026-04-15 20:16 34.79745 138.17972 453 ft 26 kts 112°
2026-04-15 20:17 34.79678 138.18176 453 ft 26 kts 111°
2026-04-15 20:17 34.79611 138.18381 449 ft 26 kts 112°
2026-04-15 20:17 34.79543 138.18583 432 ft 26 kts 113°
2026-04-15 20:17 34.79472 138.18786 432 ft 26 kts 113°
2026-04-15 20:18 34.79402 138.18988 424 ft 26 kts 112°
2026-04-15 20:18 34.79334 138.19190 428 ft 26 kts 112°
2026-04-15 20:18 34.79266 138.19399 426 ft 26 kts 110°
2026-04-15 20:18 34.79202 138.19606 420 ft 26 kts 112°
2026-04-15 20:19 34.79133 138.19810 422 ft 26 kts 112°
2026-04-15 20:19 34.79078 138.19977 424 ft 15 kts 112°
2026-04-15 20:19 34.79047 138.20095 419 ft 10 kts 85°
2026-04-15 20:19 34.79102 138.20142 421 ft 10 kts 13°
2026-04-15 20:20 34.79166 138.20178 423 ft 10 kts 22°
2026-04-15 20:20 34.79191 138.20165 422 ft 4 kts 295°
2026-04-15 20:20 34.79200 138.20138 421 ft 18 kts 291°
2026-04-15 20:20 34.79360 138.19649 425 ft 102 kts 292°
2026-04-15 20:21 34.79720 138.18589 447 ft 168 kts 292°
2026-04-15 20:21 34.80201 138.17192 984 ft 176 kts 293°
2026-04-15 20:21 34.80675 138.15813 1697 ft 181 kts 292°
2026-04-15 20:21 34.81160 138.14330 2307 ft 193 kts 292°
2026-04-15 20:22 34.81714 138.12638 2577 ft 219 kts 292°
2026-04-15 20:22 34.82328 138.10789 2863 ft 244 kts 294°
2026-04-15 20:22 34.83303 138.09052 3274 ft 257 kts 321°
2026-04-15 20:22 34.84939 138.08090 4047 ft 263 kts 350°
2026-04-15 20:23 34.86216 138.08054 4607 ft 267 kts
2026-04-15 20:23 34.87948 138.08926 5450 ft 270 kts 37°
2026-04-15 20:23 34.89188 138.10749 6331 ft 274 kts 65°
2026-04-15 20:23 34.89599 138.13023 7081 ft 280 kts 91°
2026-04-15 20:24 34.89156 138.15335 7803 ft 283 kts 111°
2026-04-15 20:24 34.88364 138.20176 9062 ft 292 kts 92°
2026-04-15 20:24 34.88159 138.22689 9816 ft 298 kts 96°
2026-04-15 20:25 34.87857 138.25311 10358 ft 311 kts 97°
2026-04-15 20:25 34.87654 138.26922 10464 ft 327 kts 98°
2026-04-15 20:25 34.87404 138.28839 10601 ft 345 kts 98°
2026-04-15 20:25 34.87333 138.29370 10627 ft 350 kts 98°
2026-04-15 20:26 34.86972 138.32044 10820 ft 373 kts 99°
2026-04-15 20:26 34.86529 138.35254 11322 ft 388 kts 99°
2026-04-15 20:26 34.86071 138.38535 12040 ft 398 kts 99°
2026-04-15 20:26 34.85595 138.41922 12924 ft 405 kts 99°
2026-04-15 20:27 34.85112 138.45345 13785 ft 411 kts 100°
2026-04-15 20:27 34.84608 138.48913 14542 ft 419 kts 100°
2026-04-15 20:27 34.84106 138.52463 15251 ft 427 kts 100°
2026-04-15 20:27 34.83594 138.56071 15963 ft 435 kts 100°
2026-04-15 20:28 34.83070 138.59767 16675 ft 442 kts 101°
2026-04-15 20:28 34.82541 138.63486 17377 ft 449 kts 101°
2026-04-15 20:28 34.81997 138.67306 18077 ft 456 kts 101°
2026-04-15 20:28 34.81624 138.69920 18475 ft 461 kts 101°
2026-04-15 20:29 34.81060 138.73863 19050 ft 469 kts 101°
2026-04-15 20:29 34.80507 138.77720 19610 ft 476 kts 101°
2026-04-15 20:29 34.79903 138.81921 20210 ft 483 kts 101°
2026-04-15 20:29 34.79314 138.86012 20799 ft 489 kts 102°
2026-04-15 20:30 34.78724 138.90095 21346 ft 496 kts 102°
2026-04-15 20:30 34.78223 138.93562 21809 ft 501 kts 102°
2026-04-15 20:30 34.77602 138.97833 22366 ft 508 kts 102°
2026-04-15 20:30 34.76976 139.02145 22905 ft 514 kts 102°
2026-04-15 20:31 34.76331 139.06580 23435 ft 521 kts 103°
2026-04-15 20:31 34.75678 139.11052 23885 ft 527 kts 102°
2026-04-15 20:31 34.75044 139.15382 24371 ft 531 kts 102°
2026-04-15 20:31 34.74380 139.19901 24886 ft 535 kts 102°
2026-04-15 20:32 34.73715 139.24421 25382 ft 539 kts 102°
2026-04-15 20:32 34.73039 139.29004 25856 ft 544 kts 102°
2026-04-15 20:32 34.72374 139.33532 26308 ft 548 kts 101°
2026-04-15 20:32 34.72057 139.38273 26622 ft 555 kts 87°
2026-04-15 20:33 34.72343 139.41419 26864 ft 557 kts 77°
2026-04-15 20:33 34.73403 139.45887 27385 ft 555 kts 64°
2026-04-15 20:33 34.75183 139.50139 27883 ft 549 kts 52°
2026-04-15 20:33 34.77287 139.54092 28363 ft 552 kts 52°
2026-04-15 20:34 34.79342 139.58086 28781 ft 557 kts 53°
2026-04-15 20:34 34.81377 139.62199 29232 ft 561 kts 54°
2026-04-15 20:34 34.83368 139.66316 29809 ft 561 kts 54°
2026-04-15 20:34 34.85315 139.70371 30348 ft 560 kts 54°
2026-04-15 20:35 34.87333 139.74565 30909 ft 558 kts 54°
2026-04-15 20:35 34.89319 139.78673 31403 ft 557 kts 53°
2026-04-15 20:35 34.91110 139.82371 31833 ft 557 kts 53°
2026-04-15 20:35 34.93031 139.86588 32317 ft 560 kts 59°
2026-04-15 20:36 34.94591 139.90915 32779 ft 563 kts 65°
2026-04-15 20:36 34.95884 139.95529 33262 ft 566 kts 71°
2026-04-15 20:36 34.96779 140.00091 33701 ft 567 kts 75°
2026-04-15 20:36 34.97649 140.04894 34099 ft 566 kts 75°
2026-04-15 20:37 34.98520 140.09611 34418 ft 567 kts 75°
2026-04-15 20:37 34.99417 140.14355 34703 ft 569 kts 74°
2026-04-15 20:37 35.00331 140.19098 34810 ft 573 kts 74°
2026-04-15 20:38 35.02172 140.28575 34835 ft 572 kts 74°
2026-04-15 20:38 35.03984 140.37972 34831 ft 566 kts 75°
2026-04-15 20:39 35.05813 140.47517 34838 ft 566 kts 75°
2026-04-15 20:39 35.07708 140.57004 34846 ft 567 kts 71°
2026-04-15 20:40 35.10562 140.66108 34850 ft 564 kts 63°
2026-04-15 20:40 35.13620 140.74978 34840 ft 563 kts 64°
2026-04-15 20:41 35.16683 140.84050 34831 ft 562 kts 64°
2026-04-15 20:41 35.19645 140.92969 34832 ft 561 kts 64°
2026-04-15 20:42 35.22104 141.00412 34838 ft 561 kts 65°
2026-04-15 20:42 35.25092 141.09470 34846 ft 561 kts 65°
2026-04-15 20:43 35.28024 141.18369 34837 ft 561 kts 65°
2026-04-15 20:43 35.30991 141.27403 34836 ft 561 kts 65°
2026-04-15 20:44 35.33944 141.36420 34836 ft 561 kts 65°
2026-04-15 20:44 35.36864 141.45363 34837 ft 561 kts 65°
2026-04-15 20:45 35.39786 141.54343 34837 ft 560 kts 65°
2026-04-15 20:45 35.42693 141.63300 34825 ft 560 kts 65°
2026-04-15 20:46 35.45598 141.72278 34833 ft 560 kts 66°
2026-04-15 20:46 35.48495 141.81260 34830 ft 559 kts 66°
2026-04-15 20:47 35.51351 141.90139 34826 ft 559 kts 66°
2026-04-15 20:47 35.54221 141.99092 34829 ft 559 kts 66°
2026-04-15 20:48 35.57078 142.08027 34830 ft 559 kts 66°
2026-04-15 20:48 35.59931 142.16979 34831 ft 560 kts 66°
2026-04-15 20:49 35.62306 142.24453 34824 ft 560 kts 66°
2026-04-15 20:49 35.65179 142.33519 34826 ft 560 kts 66°
2026-04-15 20:50 35.68042 142.42581 34825 ft 559 kts 67°
2026-04-15 20:50 35.70843 142.51473 34828 ft 558 kts 67°
2026-04-15 20:51 35.73676 142.60495 34825 ft 559 kts 67°
2026-04-15 20:51 35.76513 142.69557 34812 ft 560 kts 67°
2026-04-15 20:52 35.79340 142.78617 34816 ft 558 kts 67°
2026-04-15 20:52 35.82148 142.87642 34815 ft 557 kts 67°
2026-04-15 20:53 35.84937 142.96638 34823 ft 556 kts 68°
2026-04-15 20:53 35.87707 143.05600 34825 ft 556 kts 68°
2026-04-15 20:54 35.90541 143.14779 34832 ft 557 kts 66°
2026-04-15 20:54 35.93602 143.21736 34821 ft 549 kts 49°
2026-04-15 20:55 35.98902 143.28521 34831 ft 539 kts 31°
2026-04-15 20:55 36.05070 143.33979 34836 ft 540 kts 30°
2026-04-15 20:56 36.11225 143.39527 34840 ft 540 kts 31°
2026-04-15 20:56 36.17310 143.45126 34837 ft 539 kts 31°
2026-04-15 20:57 36.23330 143.50700 34835 ft 539 kts 31°
2026-04-15 20:57 36.29332 143.56259 34835 ft 539 kts 31°
2026-04-15 20:58 36.35443 143.61924 34832 ft 540 kts 31°
2026-04-15 20:58 36.41509 143.67558 34832 ft 539 kts 32°
2026-04-15 20:59 36.47626 143.73250 34834 ft 540 kts 32°
2026-04-15 20:59 36.53761 143.78971 34848 ft 540 kts 32°
2026-04-15 21:00 36.59802 143.84616 34842 ft 541 kts 32°
2026-04-15 21:00 36.65910 143.90335 35219 ft 544 kts 32°
2026-04-15 21:00 36.68980 143.93215 35534 ft 544 kts 32°
2026-04-15 21:01 36.71997 143.96048 35862 ft 544 kts 32°
2026-04-15 21:01 36.74999 143.98869 36163 ft 544 kts 32°
2026-04-15 21:01 36.77053 144.00802 36376 ft 544 kts 32°
2026-04-15 21:01 36.80105 144.03674 36664 ft 545 kts 31°
2026-04-15 21:02 36.83140 144.06533 36804 ft 547 kts 31°
2026-04-15 21:02 36.89279 144.12326 36844 ft 549 kts 31°
2026-04-15 21:03 36.95340 144.18061 36849 ft 547 kts 32°
2026-04-15 21:03 37.01492 144.23892 36851 ft 544 kts 32°
2026-04-15 21:04 37.07549 144.29644 36861 ft 544 kts 32°
2026-04-15 21:04 37.13658 144.35462 36868 ft 545 kts 32°
2026-04-15 21:05 37.19745 144.41274 36868 ft 546 kts 32°
2026-04-15 21:05 37.25899 144.47164 36873 ft 545 kts 32°
2026-04-15 21:06 37.31976 144.52993 36871 ft 544 kts 32°
2026-04-15 21:06 37.38035 144.58815 36875 ft 544 kts 32°
2026-04-15 21:07 37.44092 144.64646 36877 ft 544 kts 32°
2026-04-15 21:07 37.50159 144.70500 36884 ft 544 kts 32°
2026-04-15 21:08 37.56245 144.76385 36889 ft 543 kts 32°
2026-04-15 21:08 37.61306 144.81289 36888 ft 542 kts 32°
2026-04-15 21:09 37.67322 144.87129 36889 ft 541 kts 33°
2026-04-15 21:09 37.73454 144.93094 36897 ft 540 kts 33°
2026-04-15 21:10 37.79455 144.98944 36899 ft 540 kts 33°
2026-04-15 21:10 37.85410 145.04760 36901 ft 540 kts 33°
2026-04-15 21:11 37.91454 145.10677 36904 ft 539 kts 33°
2026-04-15 21:11 37.97422 145.16533 36902 ft 539 kts 33°
2026-04-15 21:12 38.03451 145.22460 36907 ft 539 kts 33°
2026-04-15 21:12 38.09438 145.28358 36912 ft 539 kts 33°
2026-04-15 21:13 38.15450 145.34294 36915 ft 540 kts 33°
2026-04-15 21:13 38.21392 145.40175 36913 ft 540 kts 33°
2026-04-15 21:14 38.27399 145.46132 36917 ft 540 kts 33°
2026-04-15 21:14 38.33365 145.52088 36922 ft 541 kts 36°
2026-04-15 21:15 38.37977 145.57359 36926 ft 543 kts 39°
2026-04-15 21:15 38.43651 145.64117 36929 ft 544 kts 39°
2026-04-15 21:16 38.49233 145.70768 36922 ft 543 kts 39°
2026-04-15 21:16 38.54851 145.77431 36929 ft 543 kts 39°
2026-04-15 21:17 38.60397 145.84001 36929 ft 543 kts 39°
2026-04-15 21:17 38.65445 145.89993 36935 ft 543 kts 39°
2026-04-15 21:18 38.71153 145.96786 36936 ft 543 kts 39°
2026-04-15 21:18 38.76692 146.03395 36940 ft 543 kts 39°
2026-04-15 21:19 38.82354 146.10167 36941 ft 543 kts 39°
2026-04-15 21:19 38.87892 146.16805 36941 ft 544 kts 39°
2026-04-15 21:20 38.92575 146.22431 36938 ft 543 kts 39°
2026-04-15 21:20 38.98117 146.29100 36949 ft 543 kts 39°
2026-04-15 21:21 39.03702 146.35837 36954 ft 544 kts 39°
2026-04-15 21:21 39.09225 146.42515 36960 ft 544 kts 39°
2026-04-15 21:22 39.14837 146.49315 36945 ft 544 kts 39°
2026-04-15 21:22 39.20401 146.56075 36948 ft 544 kts 39°
2026-04-15 21:23 39.26036 146.62934 36956 ft 544 kts 40°
2026-04-15 21:23 39.31595 146.69718 36961 ft 543 kts 40°
2026-04-15 21:24 39.37108 146.76459 36960 ft 544 kts 40°
2026-04-15 21:24 39.42716 146.83333 36968 ft 544 kts 40°
2026-04-15 21:25 39.48285 146.90174 36971 ft 545 kts 40°
2026-04-15 21:25 39.52935 146.95901 36973 ft 545 kts 40°
2026-04-15 21:26 39.58466 147.02727 36971 ft 545 kts 40°
2026-04-15 21:26 39.64043 147.09625 36979 ft 545 kts 40°
2026-04-15 21:27 39.69525 147.16421 36990 ft 545 kts 40°
2026-04-15 21:27 39.75130 147.23384 36985 ft 546 kts 40°
2026-04-15 21:28 39.80606 147.30205 36987 ft 547 kts 40°
2026-04-15 21:28 39.86235 147.37232 36991 ft 547 kts 40°
2026-04-15 21:29 39.91788 147.44180 36996 ft 548 kts 40°
2026-04-15 21:29 39.97302 147.51097 37000 ft 548 kts 40°
2026-04-15 21:30 40.02804 147.58016 36995 ft 547 kts 40°
2026-04-15 21:30 40.08374 147.65037 37013 ft 547 kts 40°
2026-04-15 21:31 40.16644 147.75489 37020 ft 548 kts 40°
2026-04-15 21:32 40.24019 147.84843 37013 ft 549 kts 40°
2026-04-15 21:32 40.29581 147.91917 37016 ft 549 kts 40°
2026-04-15 21:33 40.35106 147.98963 37021 ft 548 kts 40°
2026-04-15 21:33 40.40642 148.06038 37025 ft 548 kts 40°
2026-04-15 21:34 40.46114 148.13049 37030 ft 547 kts 40°
2026-04-15 21:34 40.51645 148.20152 37033 ft 547 kts 40°
2026-04-15 21:35 40.57177 148.27273 37032 ft 547 kts 40°
2026-04-15 21:35 40.62672 148.34366 37036 ft 547 kts 40°
2026-04-15 21:36 40.68175 148.41486 37036 ft 547 kts 40°
2026-04-15 21:36 40.73683 148.48629 37044 ft 547 kts 40°
2026-04-15 21:37 40.79162 148.55752 37048 ft 546 kts 40°
2026-04-15 21:37 40.84644 148.62897 37057 ft 546 kts 40°
2026-04-15 21:38 40.90036 148.69941 37058 ft 546 kts 40°
2026-04-15 21:38 40.94597 148.75915 37058 ft 545 kts 40°
2026-04-15 21:39 40.99996 148.83001 37062 ft 545 kts 40°
2026-04-15 21:39 41.05398 148.90108 37071 ft 545 kts 40°
2026-04-15 21:40 41.10837 148.97281 37073 ft 545 kts 40°
2026-04-15 21:40 41.16338 149.04561 37080 ft 546 kts 40°
2026-04-15 21:41 41.21693 149.11669 37081 ft 546 kts 40°
2026-04-15 21:41 41.27157 149.18940 37091 ft 545 kts 40°
2026-04-15 21:42 41.32525 149.26101 37088 ft 545 kts 40°
2026-04-15 21:42 41.37939 149.33342 37091 ft 545 kts 40°
2026-04-15 21:43 41.43393 149.40653 37094 ft 545 kts 40°
2026-04-15 21:43 41.48831 149.47961 37104 ft 546 kts 40°
2026-04-15 21:44 41.54244 149.55253 37102 ft 546 kts 40°
2026-04-15 21:44 41.58772 149.61369 37103 ft 546 kts 40°
2026-04-15 21:45 41.64144 149.68642 37122 ft 546 kts 40°
2026-04-15 21:45 41.69562 149.75994 37123 ft 546 kts 40°
2026-04-15 21:46 41.74895 149.83250 37127 ft 546 kts 40°
2026-04-15 21:46 41.80239 149.90540 37132 ft 546 kts 40°
2026-04-15 21:47 41.85596 149.97865 37128 ft 545 kts 40°
2026-04-15 21:47 41.90942 150.05195 37136 ft 545 kts 40°
2026-04-15 21:48 41.96291 150.12546 37140 ft 545 kts 40°
2026-04-15 21:48 42.01657 150.19940 37145 ft 545 kts 40°
2026-04-15 21:49 42.06930 150.27223 37153 ft 545 kts 40°
2026-04-15 21:49 42.12339 150.34715 37150 ft 546 kts 40°
2026-04-15 21:50 42.17693 150.42150 37153 ft 546 kts 40°
2026-04-15 21:50 42.22178 150.48394 37157 ft 546 kts 40°
2026-04-15 21:51 42.27389 150.55664 37160 ft 546 kts 40°
2026-04-15 21:51 42.32873 150.63335 37161 ft 546 kts 40°
2026-04-15 21:52 42.38190 150.70792 37159 ft 546 kts 40°
2026-04-15 21:52 42.43518 150.78284 37182 ft 546 kts 40°
2026-04-15 21:53 42.48852 150.85805 37171 ft 547 kts 40°
2026-04-15 21:53 42.54182 150.93340 37178 ft 547 kts 40°
2026-04-15 21:54 42.59479 151.00848 37174 ft 546 kts 40°
2026-04-15 21:54 42.64776 151.08375 37180 ft 546 kts 40°
2026-04-15 21:55 42.70081 151.15934 37188 ft 546 kts 40°
2026-04-15 21:55 42.75416 151.23554 37190 ft 546 kts 41°
2026-04-15 21:56 42.80690 151.31108 37193 ft 547 kts 41°
2026-04-15 21:56 42.85938 151.38647 37193 ft 546 kts 41°
2026-04-15 21:57 42.90362 151.45018 37200 ft 545 kts 41°
2026-04-15 21:57 42.95639 151.52633 37202 ft 545 kts 41°
2026-04-15 21:58 43.00856 151.60181 37203 ft 545 kts 41°
2026-04-15 21:58 43.06102 151.67793 37203 ft 545 kts 41°
2026-04-15 21:59 43.11315 151.75378 37209 ft 544 kts 41°
2026-04-15 21:59 43.16609 151.83100 37205 ft 544 kts 41°
2026-04-15 22:00 43.21824 151.90727 37207 ft 544 kts 41°
2026-04-15 22:00 43.27043 151.98382 37203 ft 544 kts 41°
2026-04-15 22:00 43.29663 152.02233 37464 ft 543 kts 39°
2026-04-15 22:01 43.32271 152.06074 37155 ft 540 kts 41°
2026-04-15 22:01 43.37465 152.13728 37222 ft 544 kts 41°
2026-04-15 22:02 43.42674 152.21425 37221 ft 546 kts 41°
2026-04-15 22:02 43.47870 152.29131 37219 ft 545 kts 41°
2026-04-15 22:03 43.53089 152.36893 37204 ft 543 kts 41°
2026-04-15 22:03 43.58263 152.44606 37222 ft 543 kts 41°
2026-04-15 22:04 43.63435 152.52336 37225 ft 543 kts 41°
2026-04-15 22:04 43.67715 152.58747 37237 ft 543 kts 41°
2026-04-15 22:05 43.72886 152.66517 37233 ft 543 kts 41°
2026-04-15 22:05 43.78028 152.74262 37231 ft 542 kts 41°
2026-04-15 22:06 43.83187 152.82056 37228 ft 541 kts 41°
2026-04-15 22:06 43.88309 152.89812 37236 ft 541 kts 41°
2026-04-15 22:07 43.93437 152.97599 37230 ft 541 kts 42°
2026-04-15 22:07 43.98528 153.05353 37237 ft 541 kts 42°
2026-04-15 22:08 44.03632 153.13149 37235 ft 541 kts 42°
2026-04-15 22:08 44.08767 153.21013 37240 ft 541 kts 42°
2026-04-15 22:09 44.13873 153.28853 37230 ft 541 kts 42°
2026-04-15 22:09 44.19006 153.36758 37243 ft 542 kts 42°
2026-04-15 22:10 44.24110 153.44639 37235 ft 542 kts 42°
2026-04-15 22:10 44.29261 153.52617 37246 ft 542 kts 42°
2026-04-15 22:11 44.33498 153.59196 37240 ft 542 kts 42°
2026-04-15 22:11 44.38574 153.67098 37250 ft 541 kts 42°
2026-04-15 22:12 44.43600 153.74942 37240 ft 542 kts 42°
2026-04-15 22:12 44.48608 153.82781 37245 ft 542 kts 42°
2026-04-15 22:13 44.53622 153.90653 37245 ft 542 kts 42°
2026-04-15 22:13 44.58661 153.98584 37253 ft 542 kts 42°
2026-04-15 22:14 44.63670 154.06492 37250 ft 542 kts 42°
2026-04-15 22:14 44.68649 154.14374 37250 ft 541 kts 43°
2026-04-15 22:15 44.73651 154.22314 37248 ft 542 kts 43°
2026-04-15 22:15 44.78662 154.30292 37253 ft 542 kts 43°
2026-04-15 22:16 44.83658 154.38269 37249 ft 542 kts 43°
2026-04-15 22:16 44.88635 154.46282 37249 ft 542 kts 43°
2026-04-15 22:17 44.93514 154.54318 37237 ft 542 kts 44°
2026-04-15 22:17 44.98420 154.62448 37263 ft 543 kts 44°
2026-04-15 22:18 45.03333 154.70592 37251 ft 543 kts 44°
2026-04-15 22:18 45.08212 154.78687 37251 ft 542 kts 44°
2026-04-15 22:19 45.13067 154.86761 37248 ft 542 kts 44°
2026-04-15 22:19 45.18000 154.94990 37250 ft 542 kts 44°
2026-04-15 22:20 45.22887 155.03169 37250 ft 542 kts 44°
2026-04-15 22:20 45.27734 155.11304 37250 ft 542 kts 44°
2026-04-15 22:21 45.32603 155.19499 37244 ft 542 kts 44°
2026-04-15 22:21 45.37468 155.27712 37247 ft 541 kts 44°
2026-04-15 22:22 45.42307 155.35906 37238 ft 541 kts 44°
2026-04-15 22:22 45.47127 155.44090 37248 ft 541 kts 45°
2026-04-15 22:23 45.51933 155.52274 37247 ft 541 kts 45°
2026-04-15 22:23 45.56799 155.60586 37246 ft 540 kts 45°
2026-04-15 22:24 45.61594 155.68800 37245 ft 540 kts 45°
2026-04-15 22:24 45.66413 155.77079 37245 ft 540 kts 45°
2026-04-15 22:25 45.71214 155.85353 37233 ft 539 kts 45°
2026-04-15 22:25 45.75980 155.93590 37237 ft 539 kts 45°
2026-04-15 22:26 45.80767 156.01887 37236 ft 539 kts 45°
2026-04-15 22:26 45.85546 156.10195 37239 ft 538 kts 45°
2026-04-15 22:27 45.90286 156.18462 37232 ft 538 kts 45°
2026-04-15 22:27 45.95042 156.26779 37238 ft 538 kts 45°
2026-04-15 22:28 45.99775 156.35081 37237 ft 537 kts 45°
2026-04-15 22:28 46.04515 156.43421 37239 ft 537 kts 45°
2026-04-15 22:29 46.09246 156.51771 37244 ft 537 kts 46°
2026-04-15 22:29 46.13945 156.60088 37231 ft 537 kts 46°
2026-04-15 22:30 46.18665 156.68467 37234 ft 537 kts 46°
2026-04-15 22:30 46.23384 156.76870 37233 ft 537 kts 46°
2026-04-15 22:31 46.28075 156.85250 37231 ft 536 kts 46°
2026-04-15 22:31 46.32744 156.93615 37227 ft 536 kts 46°
2026-04-15 22:32 46.37451 157.02072 37226 ft 536 kts 46°
2026-04-15 22:32 46.42133 157.10511 37232 ft 536 kts 46°
2026-04-15 22:33 46.46808 157.18963 37221 ft 536 kts 46°
2026-04-15 22:33 46.51443 157.27366 37226 ft 536 kts 46°
2026-04-15 22:34 46.56095 157.35828 37224 ft 536 kts 47°
2026-04-15 22:34 46.60783 157.44382 37221 ft 536 kts 47°
2026-04-15 22:35 46.65393 157.52820 37219 ft 535 kts 47°
2026-04-15 22:35 46.70024 157.61323 37204 ft 535 kts 47°
2026-04-15 22:36 46.74656 157.69852 37215 ft 534 kts 47°
2026-04-15 22:36 46.79279 157.78389 37212 ft 535 kts 47°
2026-04-15 22:37 46.83871 157.86898 37208 ft 535 kts 47°
2026-04-15 22:37 46.88475 157.95454 37211 ft 535 kts 47°
2026-04-15 22:38 46.93071 158.04023 37204 ft 535 kts 47°
2026-04-15 22:38 46.95365 158.08311 37054 ft 534 kts 47°
2026-04-15 22:38 46.97645 158.12579 37121 ft 534 kts 47°
2026-04-15 22:39 47.01455 158.19723 37201 ft 535 kts 47°
2026-04-15 22:39 47.06037 158.28339 37199 ft 537 kts 47°
2026-04-15 22:40 47.10662 158.37066 37197 ft 536 kts 47°
2026-04-15 22:40 47.15223 158.45702 37186 ft 534 kts 47°
2026-04-15 22:41 47.22050 158.58674 37192 ft 534 kts 47°
2026-04-15 22:41 47.26601 158.67354 37188 ft 534 kts 48°
2026-04-15 22:42 47.31101 158.75965 37181 ft 534 kts 48°
2026-04-15 22:42 47.35643 158.84684 37177 ft 534 kts 48°
2026-04-15 22:43 47.40170 158.93402 37176 ft 533 kts 48°
2026-04-15 22:43 47.44681 159.02119 37175 ft 533 kts 48°
2026-04-15 22:44 47.49175 159.10828 37171 ft 533 kts 48°
2026-04-15 22:44 47.53636 159.19502 37169 ft 533 kts 48°
2026-04-15 22:45 47.58168 159.28342 37169 ft 533 kts 48°
2026-04-15 22:45 47.62654 159.37121 37165 ft 533 kts 49°
2026-04-15 22:46 47.67136 159.45919 37152 ft 533 kts 49°
2026-04-15 22:46 47.71600 159.54710 37153 ft 532 kts 49°
2026-04-15 22:47 47.76030 159.63463 37159 ft 532 kts 49°
2026-04-15 22:47 47.80493 159.72308 37151 ft 532 kts 49°
2026-04-15 22:48 47.84922 159.81118 37149 ft 532 kts 49°
2026-04-15 22:48 47.89365 159.89981 37141 ft 532 kts 49°
2026-04-15 22:49 47.93768 159.98792 37137 ft 531 kts 49°
2026-04-15 22:49 47.98193 160.07679 37134 ft 531 kts 49°
2026-04-15 22:50 48.02599 160.16554 37133 ft 531 kts 49°
2026-04-15 22:50 48.07010 160.25469 37132 ft 531 kts 49°
2026-04-15 22:51 48.11357 160.34285 37126 ft 531 kts 49°
2026-04-15 22:51 48.15755 160.43233 37119 ft 530 kts 49°
2026-04-15 22:52 48.20125 160.52153 37120 ft 530 kts 50°
2026-04-15 22:52 48.24481 160.61073 37117 ft 530 kts 50°
2026-04-15 22:53 48.28843 160.70049 37112 ft 531 kts 50°
2026-04-15 22:53 48.33076 160.79138 37109 ft 531 kts 51°
2026-04-15 22:54 48.37250 160.88297 37102 ft 531 kts 52°
2026-04-15 22:54 48.41441 160.97486 37105 ft 530 kts 51°
2026-04-15 22:55 48.45623 161.06641 37097 ft 530 kts 51°
2026-04-15 22:55 48.49786 161.15766 37093 ft 530 kts 52°
2026-04-15 22:56 48.53965 161.24959 37092 ft 530 kts 52°
2026-04-15 22:56 48.58127 161.34149 37093 ft 530 kts 52°
2026-04-15 22:57 48.62291 161.43379 37089 ft 530 kts 52°
2026-04-15 22:57 48.66418 161.52557 37083 ft 529 kts 52°
2026-04-15 22:58 48.70553 161.61783 37079 ft 529 kts 52°
2026-04-15 22:58 48.74692 161.71052 37073 ft 529 kts 52°
2026-04-15 22:59 48.78810 161.80303 37081 ft 529 kts 52°
2026-04-15 22:59 48.82931 161.89593 37067 ft 529 kts 52°
2026-04-15 23:00 48.87035 161.98879 37069 ft 529 kts 52°
2026-04-15 23:00 48.91124 162.08161 37081 ft 529 kts 53°
2026-04-15 23:01 48.95187 162.17416 37066 ft 529 kts 53°
2026-04-15 23:01 48.99291 162.26798 37061 ft 527 kts 53°
2026-04-15 23:02 49.03348 162.36107 37059 ft 526 kts 53°
2026-04-15 23:02 49.07361 162.45343 37053 ft 527 kts 53°
2026-04-15 23:03 49.11433 162.54748 37050 ft 527 kts 53°
2026-04-15 23:03 49.15459 162.64081 37046 ft 526 kts 53°
2026-04-15 23:04 49.19489 162.73455 37038 ft 525 kts 53°
2026-04-15 23:04 49.23467 162.82742 37038 ft 525 kts 53°
2026-04-15 23:05 49.27473 162.92126 37043 ft 525 kts 54°
2026-04-15 23:05 49.31470 163.01520 37035 ft 525 kts 54°
2026-04-15 23:06 49.35426 163.10854 37033 ft 524 kts 54°
2026-04-15 23:06 49.39366 163.20181 37022 ft 524 kts 54°
2026-04-15 23:07 49.42692 163.28081 37028 ft 524 kts 54°
2026-04-15 23:07 49.47289 163.39036 37018 ft 524 kts 54°
2026-04-15 23:08 49.50605 163.46969 37017 ft 524 kts 54°
2026-04-15 23:08 49.54535 163.56399 37021 ft 524 kts 54°
2026-04-15 23:09 49.58471 163.65880 37012 ft 524 kts 54°
2026-04-15 23:09 49.62386 163.75342 37002 ft 524 kts 55°
2026-04-15 23:10 49.66303 163.84842 36995 ft 524 kts 55°
2026-04-15 23:10 49.70201 163.94333 36997 ft 524 kts 55°
2026-04-15 23:11 49.74115 164.03896 36998 ft 524 kts 55°
2026-04-15 23:11 49.78018 164.13467 36992 ft 523 kts 55°
2026-04-15 23:12 49.81898 164.23015 36992 ft 524 kts 55°
2026-04-15 23:12 49.85777 164.32597 36985 ft 524 kts 55°
2026-04-15 23:13 49.89636 164.42163 36985 ft 523 kts 55°
2026-04-15 23:13 49.93479 164.51725 36979 ft 523 kts 56°
2026-04-15 23:14 49.97323 164.61324 36978 ft 523 kts 56°
2026-04-15 23:14 50.01157 164.70933 36979 ft 523 kts 56°
2026-04-15 23:15 50.04989 164.80572 36969 ft 523 kts 56°
2026-04-15 23:15 50.08809 164.90218 36969 ft 523 kts 56°
2026-04-15 23:16 50.12605 164.99838 36962 ft 523 kts 56°
2026-04-15 23:16 50.16369 165.09410 36964 ft 523 kts 56°
2026-04-15 23:17 50.20194 165.19229 36961 ft 522 kts 57°
2026-04-15 23:17 50.23924 165.28954 36953 ft 522 kts 57°
2026-04-15 23:18 50.27608 165.38609 36951 ft 522 kts 57°
2026-04-15 23:18 50.31366 165.48476 36952 ft 522 kts 57°
2026-04-15 23:19 50.35047 165.58168 36943 ft 522 kts 57°
2026-04-15 23:19 50.38775 165.68017 36939 ft 522 kts 57°
2026-04-15 23:20 50.42475 165.77831 36943 ft 522 kts 57°
2026-04-15 23:20 50.46114 165.87521 36935 ft 522 kts 57°
2026-04-15 23:21 50.49808 165.97396 36931 ft 522 kts 57°
2026-04-15 23:21 50.53497 166.07294 36934 ft 522 kts 57°
2026-04-15 23:22 50.57157 166.17152 36928 ft 521 kts 58°
2026-04-15 23:22 50.60814 166.27039 36924 ft 521 kts 58°
2026-04-15 23:23 50.64402 166.36779 36922 ft 520 kts 58°
2026-04-15 23:23 50.68048 166.46712 36926 ft 521 kts 58°
2026-04-15 23:24 50.71647 166.56555 36918 ft 521 kts 58°
2026-04-15 23:24 50.75280 166.66531 36914 ft 520 kts 58°
2026-04-15 23:25 50.78893 166.76488 36915 ft 520 kts 58°
2026-04-15 23:25 50.82480 166.86413 36912 ft 520 kts 58°
2026-04-15 23:26 50.86043 166.96311 36903 ft 520 kts 58°
2026-04-15 23:26 50.89645 167.06356 36903 ft 520 kts 59°
2026-04-15 23:27 50.93205 167.16322 36904 ft 520 kts 59°
2026-04-15 23:27 50.96752 167.26294 36898 ft 519 kts 59°
2026-04-15 23:28 51.00312 167.36340 36901 ft 519 kts 59°
2026-04-15 23:28 51.03829 167.46302 36897 ft 519 kts 59°
2026-04-15 23:29 51.07350 167.56314 36894 ft 518 kts 59°
2026-04-15 23:29 51.10875 167.66381 36893 ft 518 kts 59°
2026-04-15 23:30 51.14381 167.76431 36891 ft 518 kts 59°
2026-04-15 23:30 51.17860 167.86445 36887 ft 518 kts 59°
2026-04-15 23:31 51.21342 167.96506 36890 ft 518 kts 60°
2026-04-15 23:31 51.24809 168.06566 36889 ft 517 kts 60°
2026-04-15 23:32 51.28283 168.16685 36885 ft 517 kts 60°
2026-04-15 23:32 51.31700 168.26678 36884 ft 517 kts 60°
2026-04-15 23:33 51.35168 168.36860 36881 ft 516 kts 60°
2026-04-15 23:33 51.38591 168.46953 36878 ft 516 kts 60°
2026-04-15 23:34 51.42026 168.57121 36876 ft 516 kts 60°
2026-04-15 23:36 51.53382 168.91032 36872 ft 516 kts 61°
2026-04-15 23:36 51.56758 169.01205 36867 ft 516 kts 61°
2026-04-15 23:37 51.60137 169.11425 36867 ft 516 kts 61°
2026-04-15 23:37 51.63460 169.21521 36865 ft 516 kts 61°
2026-04-15 23:38 51.66846 169.31850 36862 ft 515 kts 61°
2026-04-15 23:38 51.70206 169.42141 36860 ft 515 kts 61°
2026-04-15 23:39 51.73508 169.52296 36857 ft 515 kts 61°
2026-04-15 23:39 51.76830 169.62556 36856 ft 515 kts 62°
2026-04-15 23:40 51.80124 169.72773 36849 ft 515 kts 62°
2026-04-15 23:40 51.83462 169.83168 36848 ft 515 kts 62°
2026-04-15 23:41 51.86759 169.93478 36848 ft 515 kts 62°
2026-04-15 23:41 51.90041 170.03787 36848 ft 515 kts 62°
2026-04-15 23:42 51.93295 170.14048 36837 ft 514 kts 62°
2026-04-15 23:42 51.96565 170.24406 36840 ft 515 kts 62°
2026-04-15 23:43 51.99828 170.34786 36844 ft 516 kts 62°
2026-04-15 23:43 52.03109 170.45266 36839 ft 517 kts 62°
2026-04-15 23:44 52.06329 170.55596 36834 ft 517 kts 62°
2026-04-15 23:44 52.09549 170.65966 36830 ft 517 kts 63°
2026-04-15 23:45 52.13170 170.76027 36826 ft 513 kts 53°
2026-04-15 23:45 52.17730 170.84931 36828 ft 510 kts 47°
2026-04-15 23:46 52.22414 170.93626 36823 ft 510 kts 47°
2026-04-15 23:46 52.27087 171.02420 36825 ft 511 kts 48°
2026-04-15 23:47 52.31725 171.11240 36823 ft 513 kts 48°
2026-04-15 23:47 52.36379 171.20143 36820 ft 515 kts 48°
2026-04-15 23:48 52.41040 171.29086 36815 ft 515 kts 49°
2026-04-15 23:48 52.45657 171.37973 36807 ft 513 kts 49°
2026-04-15 23:49 52.50275 171.46892 36806 ft 511 kts 49°
2026-04-15 23:49 52.54908 171.55871 36807 ft 510 kts 49°
2026-04-15 23:50 52.59494 171.64791 36806 ft 510 kts 49°
2026-04-15 23:50 52.64031 171.73646 36805 ft 510 kts 49°
2026-04-15 23:51 52.70921 171.87156 36801 ft 509 kts 49°
2026-04-15 23:51 52.75450 171.96077 36801 ft 509 kts 49°
2026-04-15 23:52 52.79981 172.05031 36798 ft 509 kts 49°
2026-04-15 23:52 52.84541 172.14077 36802 ft 509 kts 50°
2026-04-15 23:53 52.89033 172.23017 36803 ft 511 kts 50°
2026-04-15 23:53 52.93620 172.32183 36797 ft 512 kts 50°
2026-04-15 23:54 52.98182 172.41330 36799 ft 514 kts 50°
2026-04-15 23:54 53.02476 172.49972 36784 ft 515 kts 50°
2026-04-15 23:55 53.06082 172.57253 36786 ft 515 kts 50°
2026-04-15 23:55 53.10674 172.66554 36787 ft 513 kts 50°
2026-04-15 23:56 53.15177 172.75708 36779 ft 510 kts 50°
2026-04-15 23:56 53.19698 172.84933 36789 ft 508 kts 50°
2026-04-15 23:57 53.24167 172.94085 36770 ft 507 kts 50°
2026-04-15 23:57 53.28607 173.03211 36785 ft 506 kts 50°
2026-04-15 23:58 53.33062 173.12403 36784 ft 509 kts 51°
2026-04-15 23:58 53.37520 173.21634 36784 ft 513 kts 51°
2026-04-15 23:59 53.42002 173.30948 36779 ft 516 kts 51°
2026-04-15 23:59 53.46511 173.40356 36779 ft 517 kts 51°
2026-04-16 00:00 53.51054 173.49866 36756 ft 518 kts 51°
2026-04-16 00:00 53.55361 173.59617 36773 ft 522 kts 57°
2026-04-16 00:01 53.59283 173.69994 36774 ft 527 kts 58°
2026-04-16 00:01 53.63209 173.80496 36755 ft 530 kts 58°
2026-04-16 00:02 53.67109 173.90874 36745 ft 518 kts 57°
2026-04-16 00:02 53.70954 174.01083 36747 ft 508 kts 57°
2026-04-16 00:03 53.74680 174.11002 36751 ft 502 kts 58°
2026-04-16 00:03 53.78411 174.20980 36773 ft 500 kts 58°
2026-04-16 00:04 53.82146 174.31015 36772 ft 504 kts 58°
2026-04-16 00:04 53.85889 174.41116 36767 ft 510 kts 58°
2026-04-16 00:05 53.89655 174.51319 36749 ft 513 kts 58°
2026-04-16 00:05 53.93426 174.61575 36752 ft 512 kts 58°
2026-04-16 00:06 53.97214 174.71921 36743 ft 507 kts 58°
2026-04-16 00:06 54.00880 174.81977 36749 ft 503 kts 58°
2026-04-16 00:07 54.04557 174.92102 36768 ft 503 kts 58°
2026-04-16 00:07 54.08254 175.02327 36765 ft 507 kts 58°
2026-04-16 00:08 54.11903 175.12458 36766 ft 510 kts 58°
2026-04-16 00:08 54.15652 175.22909 36751 ft 512 kts 58°
2026-04-16 00:09 54.19339 175.33232 36744 ft 510 kts 59°
2026-04-16 00:09 54.23022 175.43586 36752 ft 505 kts 59°
2026-04-16 00:10 54.26663 175.53867 36743 ft 502 kts 59°
2026-04-16 00:10 54.30276 175.64109 36762 ft 502 kts 59°
2026-04-16 00:11 54.33884 175.74382 36764 ft 505 kts 59°
2026-04-16 00:11 54.37523 175.84784 36760 ft 507 kts 59°
2026-04-16 00:12 54.41126 175.95129 36759 ft 509 kts 59°
2026-04-16 00:12 54.44769 176.05632 36738 ft 511 kts 59°
2026-04-16 00:13 54.48407 176.16166 36733 ft 511 kts 59°
2026-04-16 00:13 54.52022 176.26679 36742 ft 509 kts 59°
2026-04-16 00:14 54.55610 176.37159 36738 ft 506 kts 60°
2026-04-16 00:14 54.59181 176.47635 36754 ft 505 kts 60°
2026-04-16 00:15 54.62720 176.58056 36749 ft 506 kts 60°
2026-04-16 00:15 54.66265 176.68543 36734 ft 507 kts 60°
2026-04-16 00:16 54.69819 176.79106 36733 ft 507 kts 60°
2026-04-16 00:16 54.73370 176.89701 36729 ft 507 kts 60°
2026-04-16 00:17 54.76906 177.00300 36728 ft 507 kts 60°
2026-04-16 00:17 54.80419 177.10872 36741 ft 508 kts 60°
2026-04-16 00:18 54.83939 177.21515 36739 ft 508 kts 60°
2026-04-16 00:18 54.87449 177.32175 36739 ft 507 kts 60°
2026-04-16 00:19 54.90927 177.42783 36721 ft 505 kts 60°
2026-04-16 00:19 54.94383 177.53370 36735 ft 502 kts 61°
2026-04-16 00:20 54.97829 177.63975 36736 ft 502 kts 61°
2026-04-16 00:20 55.01252 177.74550 36732 ft 505 kts 61°
2026-04-16 00:21 55.04139 177.83511 36733 ft 508 kts 61°
2026-04-16 00:21 55.07601 177.94297 36725 ft 511 kts 61°
2026-04-16 00:22 55.11077 178.05179 36725 ft 512 kts 61°
2026-04-16 00:22 55.14543 178.16071 36724 ft 511 kts 61°
2026-04-16 00:23 55.17983 178.26935 36720 ft 508 kts 62°
2026-04-16 00:23 55.21401 178.37783 36702 ft 507 kts 62°
2026-04-16 00:24 55.24787 178.48574 36715 ft 506 kts 62°
2026-04-16 00:24 55.28146 178.59330 36713 ft 506 kts 62°
2026-04-16 00:25 55.31543 178.70248 36712 ft 505 kts 62°
2026-04-16 00:25 55.34899 178.81067 36716 ft 506 kts 62°
2026-04-16 00:26 55.36579 178.86480 36984 ft 504 kts 62°
2026-04-16 00:26 55.38262 178.91911 37186 ft 507 kts 62°
2026-04-16 00:26 55.39946 178.97362 37590 ft 505 kts 62°
2026-04-16 00:26 55.41613 179.02767 38070 ft 501 kts 62°
2026-04-16 00:27 55.43276 179.08170 38369 ft 501 kts 62°
2026-04-16 00:27 55.44911 179.13500 38536 ft 504 kts 62°
2026-04-16 00:27 55.48260 179.24459 38647 ft 507 kts 62°
2026-04-16 00:28 55.51612 179.35481 38688 ft 510 kts 63°
2026-04-16 00:28 55.54972 179.46576 38695 ft 513 kts 63°
2026-04-16 00:29 55.58324 179.57696 38688 ft 516 kts 63°
2026-04-16 00:29 55.61674 179.68860 38691 ft 517 kts 63°
2026-04-16 00:30 55.65053 179.80178 38684 ft 518 kts 63°
2026-04-16 00:30 55.68432 179.91552 38679 ft 515 kts 63°
2026-04-16 00:31 55.71702 -179.97391 38669 ft 508 kts 63°
2026-04-16 00:31 55.74991 -179.86213 38679 ft 506 kts 63°
2026-04-16 00:32 55.78230 -179.75157 38681 ft 506 kts 63°
2026-04-16 00:32 55.81466 -179.64054 38679 ft 504 kts 63°
2026-04-16 00:33 55.84676 -179.52993 38683 ft 504 kts 63°
2026-04-16 00:33 55.87860 -179.41965 38685 ft 503 kts 63°
2026-04-16 00:34 55.91074 -179.30783 38685 ft 504 kts 64°
2026-04-16 00:34 55.94266 -179.19620 38688 ft 504 kts 64°
2026-04-16 00:35 55.97452 -179.08428 38679 ft 505 kts 64°
2026-04-16 00:35 56.00607 -178.97290 38679 ft 505 kts 64°
2026-04-16 00:36 56.03783 -178.86023 38680 ft 505 kts 64°
2026-04-16 00:36 56.06920 -178.74841 38681 ft 505 kts 64°
2026-04-16 00:37 56.10060 -178.63595 38676 ft 505 kts 64°
2026-04-16 00:37 56.13196 -178.52304 38676 ft 504 kts 64°
2026-04-16 00:38 56.16312 -178.41035 38680 ft 504 kts 64°
2026-04-16 00:38 56.19417 -178.29744 38674 ft 504 kts 64°
2026-04-16 00:39 56.22479 -178.18559 38676 ft 505 kts 64°
2026-04-16 00:39 56.25592 -178.07131 38679 ft 505 kts 65°
2026-04-16 00:40 56.28683 -177.95728 38667 ft 504 kts 65°
2026-04-16 00:40 56.31715 -177.84487 38671 ft 503 kts 65°
2026-04-16 00:41 56.34788 -177.73032 38672 ft 502 kts 65°
2026-04-16 00:41 56.37820 -177.61675 38679 ft 504 kts 65°
2026-04-16 00:42 56.40857 -177.50241 38685 ft 506 kts 65°
2026-04-16 00:42 56.43876 -177.38822 38671 ft 506 kts 65°
2026-04-16 00:43 56.46905 -177.27306 38664 ft 505 kts 65°
2026-04-16 00:43 56.49892 -177.15888 38662 ft 504 kts 65°
2026-04-16 00:44 56.52857 -177.04494 38665 ft 504 kts 65°
2026-04-16 00:44 56.55861 -176.92898 38673 ft 505 kts 66°
2026-04-16 00:45 56.58856 -176.81268 38669 ft 505 kts 66°
2026-04-16 00:45 56.61803 -176.69773 38667 ft 505 kts 66°
2026-04-16 00:46 56.64752 -176.58205 38670 ft 505 kts 66°
2026-04-16 00:46 56.67677 -176.46675 38659 ft 505 kts 66°
2026-04-16 00:47 56.70634 -176.34956 38655 ft 505 kts 66°
2026-04-16 00:47 56.73557 -176.23308 38657 ft 505 kts 66°
2026-04-16 00:48 56.76469 -176.11646 38647 ft 505 kts 66°
2026-04-16 00:48 56.79369 -175.99969 38647 ft 506 kts 66°
2026-04-16 00:50 56.90830 -175.53042 38649 ft 506 kts 67°
2026-04-16 00:51 56.93680 -175.41198 38646 ft 506 kts 67°
2026-04-16 00:51 56.96505 -175.29396 38655 ft 506 kts 67°
2026-04-16 00:52 56.98861 -175.19504 38657 ft 506 kts 67°
2026-04-16 00:52 57.02133 -175.05687 38651 ft 506 kts 67°
2026-04-16 00:53 57.04474 -174.95750 38656 ft 506 kts 68°
2026-04-16 00:53 57.07259 -174.83865 38660 ft 506 kts 68°
2026-04-16 00:54 57.10026 -174.71991 38664 ft 507 kts 68°
2026-04-16 00:54 57.12794 -174.60050 38662 ft 507 kts 68°
2026-04-16 00:55 57.15528 -174.48185 38663 ft 507 kts 68°
2026-04-16 00:55 57.18283 -174.36165 38666 ft 507 kts 68°
2026-04-16 00:56 57.21014 -174.24182 38666 ft 506 kts 68°
2026-04-16 00:56 57.23732 -174.12187 38673 ft 507 kts 68°
2026-04-16 00:57 57.27789 -173.94152 38680 ft 507 kts 68°
2026-04-16 00:58 57.30467 -173.82161 38681 ft 507 kts 68°
2026-04-16 00:58 57.33168 -173.70010 38680 ft 507 kts 69°
2026-04-16 00:59 57.35881 -173.57925 38687 ft 507 kts 68°
2026-04-16 00:59 57.38623 -173.45884 38690 ft 507 kts 68°
2026-04-16 01:00 57.41343 -173.33872 38688 ft 507 kts 68°
2026-04-16 01:00 57.44060 -173.21759 38691 ft 507 kts 68°
2026-04-16 01:01 57.46752 -173.09670 38700 ft 508 kts 68°
2026-04-16 01:01 57.49440 -172.97525 38712 ft 508 kts 69°
2026-04-16 01:02 57.52121 -172.85347 38710 ft 509 kts 69°
2026-04-16 01:02 57.54789 -172.73155 38708 ft 509 kts 69°
2026-04-16 01:03 57.57436 -172.60991 38713 ft 509 kts 69°
2026-04-16 01:03 57.60093 -172.48708 38721 ft 508 kts 69°
2026-04-16 01:04 57.62729 -172.36447 38721 ft 508 kts 69°
2026-04-16 01:04 57.65338 -172.24239 38728 ft 508 kts 69°
2026-04-16 01:05 57.67934 -172.12021 38728 ft 508 kts 69°
2026-04-16 01:05 57.70525 -171.99752 38737 ft 508 kts 69°
2026-04-16 01:06 57.73128 -171.87355 38742 ft 509 kts 70°
2026-04-16 01:06 57.75713 -171.74965 38752 ft 509 kts 70°
2026-04-16 01:07 57.78280 -171.62586 38738 ft 509 kts 70°
2026-04-16 01:07 57.80823 -171.50248 38749 ft 508 kts 70°
2026-04-16 01:08 57.83362 -171.37855 38758 ft 509 kts 70°
2026-04-16 01:08 57.85900 -171.25388 38757 ft 510 kts 70°
2026-04-16 01:09 57.88419 -171.12933 38755 ft 510 kts 70°
2026-04-16 01:09 57.90927 -171.00460 38762 ft 510 kts 70°
2026-04-16 01:10 57.93421 -170.87978 38767 ft 510 kts 70°
2026-04-16 01:10 57.95899 -170.75513 38772 ft 510 kts 70°
2026-04-16 01:11 57.98530 -170.63028 38777 ft 511 kts 69°
2026-04-16 01:11 58.01210 -170.50761 38780 ft 511 kts 69°
2026-04-16 01:12 58.03922 -170.38217 38781 ft 512 kts 69°
2026-04-16 01:12 58.06555 -170.25843 38784 ft 512 kts 69°
2026-04-16 01:13 58.09190 -170.13337 38788 ft 512 kts 69°
2026-04-16 01:13 58.11828 -170.00736 38790 ft 512 kts 69°
2026-04-16 01:14 58.14430 -169.88241 38794 ft 511 kts 70°
2026-04-16 01:14 58.17034 -169.75662 38799 ft 511 kts 70°
2026-04-16 01:15 58.19618 -169.63099 38797 ft 512 kts 70°
2026-04-16 01:15 58.22188 -169.50531 38800 ft 512 kts 70°
2026-04-16 01:16 58.24762 -169.37862 38801 ft 511 kts 70°
2026-04-16 01:16 58.27297 -169.25303 38809 ft 511 kts 70°
2026-04-16 01:17 58.29836 -169.12649 38809 ft 511 kts 70°
2026-04-16 01:17 58.32364 -168.99968 38813 ft 511 kts 70°
2026-04-16 01:18 58.34877 -168.87278 38817 ft 511 kts 70°
2026-04-16 01:18 58.37376 -168.74579 38818 ft 511 kts 70°
2026-04-16 01:19 58.39852 -168.61914 38819 ft 512 kts 71°
2026-04-16 01:19 58.42325 -168.49187 38822 ft 512 kts 71°
2026-04-16 01:20 58.44794 -168.36395 38825 ft 512 kts 71°
2026-04-16 01:20 58.47245 -168.23612 38827 ft 512 kts 71°
2026-04-16 01:21 58.49670 -168.10882 38826 ft 512 kts 71°
2026-04-16 01:21 58.52106 -167.98006 38831 ft 512 kts 71°
2026-04-16 01:22 58.54516 -167.85183 38830 ft 512 kts 71°
2026-04-16 01:22 58.56924 -167.72286 38832 ft 513 kts 71°
2026-04-16 01:23 58.58913 -167.61566 38836 ft 513 kts 72°
2026-04-16 01:23 58.61701 -167.46437 38838 ft 513 kts 72°
2026-04-16 01:24 58.64065 -167.33518 38837 ft 514 kts 72°
2026-04-16 01:24 58.66044 -167.22628 38838 ft 514 kts 72°
2026-04-16 01:25 58.68374 -167.09737 38836 ft 514 kts 72°
2026-04-16 01:25 58.70721 -166.96670 38840 ft 514 kts 72°
2026-04-16 01:26 58.73076 -166.83677 38841 ft 515 kts 72°
2026-04-16 01:26 58.75423 -166.70733 38841 ft 515 kts 72°
2026-04-16 01:27 58.77779 -166.57622 38845 ft 515 kts 72°
2026-04-16 01:27 58.80109 -166.44539 38844 ft 516 kts 72°
2026-04-16 01:28 58.82438 -166.31366 38844 ft 516 kts 72°
2026-04-16 01:28 58.84748 -166.18209 38843 ft 516 kts 73°
2026-04-16 01:29 58.87037 -166.05083 38859 ft 516 kts 73°
2026-04-16 01:29 58.89318 -165.91919 38855 ft 517 kts 73°
2026-04-16 01:30 58.91586 -165.78771 38841 ft 517 kts 73°
2026-04-16 01:30 58.93872 -165.65448 38853 ft 517 kts 73°
2026-04-16 01:31 58.96123 -165.52233 38850 ft 517 kts 73°
2026-04-16 01:31 58.98377 -165.38895 38854 ft 517 kts 73°
2026-04-16 01:32 59.00589 -165.25705 38848 ft 518 kts 73°
2026-04-16 01:32 59.02815 -165.12333 38856 ft 518 kts 73°
2026-04-16 01:33 59.05036 -164.98896 38856 ft 519 kts 74°
2026-04-16 01:33 59.07236 -164.85480 38856 ft 519 kts 74°
2026-04-16 01:34 59.09410 -164.72123 38855 ft 518 kts 74°
2026-04-16 01:34 59.11577 -164.58707 38861 ft 519 kts 74°
2026-04-16 01:35 59.13720 -164.45339 38860 ft 519 kts 74°
2026-04-16 01:35 59.15857 -164.31905 38857 ft 520 kts 75°
2026-04-16 01:36 59.17995 -164.18360 38859 ft 520 kts 75°
2026-04-16 01:36 59.20091 -164.04974 38864 ft 520 kts 75°
2026-04-16 01:37 59.22210 -163.91335 38862 ft 521 kts 75°
2026-04-16 01:37 59.24309 -163.77723 38865 ft 521 kts 75°
2026-04-16 01:38 59.26394 -163.64085 38869 ft 522 kts 75°
2026-04-16 01:38 59.28454 -163.50503 38867 ft 522 kts 75°
2026-04-16 01:39 59.30515 -163.36808 38871 ft 522 kts 75°
2026-04-16 01:39 59.32553 -163.23144 38869 ft 522 kts 75°
2026-04-16 01:40 59.34564 -163.09562 38875 ft 523 kts 76°
2026-04-16 01:40 59.36578 -162.95840 38873 ft 523 kts 76°
2026-04-16 01:41 59.38584 -162.82057 38875 ft 523 kts 76°
2026-04-16 01:41 59.40564 -162.68339 38878 ft 523 kts 76°
2026-04-16 01:42 59.42537 -162.54554 38883 ft 524 kts 76°
2026-04-16 01:42 59.44488 -162.40811 38882 ft 524 kts 76°
2026-04-16 01:43 59.46521 -162.26995 38878 ft 525 kts 74°
2026-04-16 01:43 59.48828 -162.13290 38887 ft 525 kts 73°
2026-04-16 01:44 59.51168 -161.99658 38892 ft 525 kts 73°
2026-04-16 01:44 59.53464 -161.86046 38894 ft 526 kts 73°
2026-04-16 01:45 59.55742 -161.72291 38896 ft 526 kts 73°
2026-04-16 01:45 59.57991 -161.58565 38895 ft 526 kts 73°
2026-04-16 01:46 59.60238 -161.44756 38895 ft 526 kts 73°
2026-04-16 01:46 59.62459 -161.31001 38888 ft 526 kts 73°
2026-04-16 01:47 59.64307 -161.19484 38887 ft 527 kts 74°
2026-04-16 01:47 59.66862 -161.03433 38886 ft 527 kts 74°
2026-04-16 01:48 59.69055 -160.89533 38892 ft 527 kts 74°
2026-04-16 01:48 59.70879 -160.77894 38900 ft 527 kts 74°
2026-04-16 01:49 59.73051 -160.63918 38892 ft 528 kts 74°
2026-04-16 01:49 59.75174 -160.50155 38898 ft 528 kts 74°
2026-04-16 01:50 59.77325 -160.36090 38903 ft 528 kts 74°
2026-04-16 01:50 59.79433 -160.22197 38900 ft 529 kts 75°
2026-04-16 01:51 59.81539 -160.08199 38899 ft 528 kts 75°
2026-04-16 01:51 59.83574 -159.94563 38917 ft 528 kts 75°
2026-04-16 01:52 59.85651 -159.80532 38893 ft 528 kts 75°
2026-04-16 01:52 59.87700 -159.66571 38897 ft 529 kts 75°
2026-04-16 01:53 59.89747 -159.52499 38897 ft 529 kts 75°
2026-04-16 01:53 59.91798 -159.38282 38910 ft 529 kts 75°
2026-04-16 01:54 59.93818 -159.24164 38900 ft 529 kts 75°
2026-04-16 01:54 59.95813 -159.10086 38916 ft 529 kts 75°
2026-04-16 01:55 59.97833 -158.95714 38897 ft 529 kts 75°
2026-04-16 01:55 59.99808 -158.81526 38914 ft 529 kts 75°
2026-04-16 01:56 60.01759 -158.67401 38920 ft 529 kts 76°
2026-04-16 01:56 60.03701 -158.53206 38925 ft 529 kts 76°
2026-04-16 01:57 60.05645 -158.38864 38924 ft 529 kts 76°
2026-04-16 01:57 60.07569 -158.24539 38928 ft 530 kts 76°
2026-04-16 01:58 60.09457 -158.10358 38931 ft 531 kts 76°
2026-04-16 01:58 60.11341 -157.96073 38933 ft 530 kts 76°
2026-04-16 01:59 60.13212 -157.81749 38939 ft 530 kts 76°
2026-04-16 01:59 60.15070 -157.67398 38936 ft 530 kts 76°
2026-04-16 02:00 60.16913 -157.53022 38945 ft 530 kts 76°
2026-04-16 02:00 60.18740 -157.38630 38943 ft 531 kts 76°
2026-04-16 02:01 60.20540 -157.24314 38949 ft 532 kts 77°
2026-04-16 02:01 60.22344 -157.09826 38957 ft 532 kts 77°
2026-04-16 02:02 60.24127 -156.95370 38949 ft 531 kts 77°
2026-04-16 02:02 60.25885 -156.80971 38954 ft 531 kts 77°
2026-04-16 02:03 60.27631 -156.66527 38954 ft 530 kts 77°
2026-04-16 02:03 60.29374 -156.51957 38952 ft 531 kts 77°
2026-04-16 02:04 60.31942 -156.30214 38958 ft 532 kts 77°
2026-04-16 02:04 60.33633 -156.15715 38955 ft 533 kts 77°
2026-04-16 02:05 60.35325 -156.01053 38954 ft 532 kts 77°
2026-04-16 02:05 60.36978 -155.86583 38950 ft 531 kts 77°
2026-04-16 02:06 60.38609 -155.72144 38953 ft 532 kts 78°
2026-04-16 02:06 60.40249 -155.57473 38952 ft 532 kts 78°
2026-04-16 02:07 60.41876 -155.42760 38959 ft 532 kts 78°
2026-04-16 02:07 60.43485 -155.28047 38960 ft 532 kts 78°
2026-04-16 02:08 60.45057 -155.13521 38961 ft 532 kts 78°
2026-04-16 02:08 60.46641 -154.98706 38953 ft 532 kts 78°
2026-04-16 02:09 60.48193 -154.84061 38954 ft 531 kts 78°
2026-04-16 02:09 60.49175 -154.69218 38956 ft 530 kts 91°
2026-04-16 02:10 60.48484 -154.54410 38956 ft 527 kts 105°
2026-04-16 02:10 60.47015 -154.42292 38958 ft 528 kts 107°
2026-04-16 02:11 60.45226 -154.27810 38965 ft 528 kts 106°
2026-04-16 02:11 60.43493 -154.13482 38962 ft 527 kts 106°
2026-04-16 02:12 60.41742 -153.98891 38953 ft 527 kts 106°
2026-04-16 02:12 60.40006 -153.84532 38955 ft 526 kts 106°
2026-04-16 02:13 60.39116 -153.77248 38421 ft 537 kts 106°
2026-04-16 02:13 60.38207 -153.69882 37658 ft 544 kts 107°
2026-04-16 02:13 60.37290 -153.62477 36923 ft 545 kts 107°
2026-04-16 02:13 60.36361 -153.54985 36162 ft 543 kts 108°
2026-04-16 02:14 60.35450 -153.47675 35418 ft 542 kts 108°
2026-04-16 02:14 60.34522 -153.40263 34564 ft 544 kts 108°
2026-04-16 02:14 60.33586 -153.32847 33605 ft 548 kts 109°
2026-04-16 02:14 60.32631 -153.25322 32513 ft 551 kts 109°
2026-04-16 02:15 60.31674 -153.17824 31753 ft 550 kts 110°
2026-04-16 02:15 60.30732 -153.10447 31193 ft 544 kts 110°
2026-04-16 02:15 60.29784 -153.03014 30602 ft 537 kts 110°
2026-04-16 02:15 60.28850 -152.95761 30102 ft 531 kts 110°
2026-04-16 02:16 60.27913 -152.88572 29457 ft 527 kts 111°
2026-04-16 02:16 60.26990 -152.81539 28885 ft 524 kts 110°
2026-04-16 02:16 60.26058 -152.74436 28317 ft 521 kts 110°
2026-04-16 02:16 60.25134 -152.67396 27757 ft 520 kts 110°
2026-04-16 02:17 60.24202 -152.60345 27199 ft 520 kts 110°
2026-04-16 02:17 60.23420 -152.53216 26601 ft 519 kts 99°
2026-04-16 02:17 60.23513 -152.45995 26081 ft 518 kts 80°
2026-04-16 02:17 60.24505 -152.39090 25545 ft 510 kts 64°
2026-04-16 02:18 60.26227 -152.32911 24980 ft 496 kts 51°
2026-04-16 02:18 60.28193 -152.27128 24449 ft 491 kts 51°
2026-04-16 02:18 60.30099 -152.21315 23900 ft 487 kts 52°
2026-04-16 02:18 60.31912 -152.15638 23312 ft 484 kts 53°
2026-04-16 02:19 60.33723 -152.09881 22713 ft 480 kts 53°
2026-04-16 02:19 60.35512 -152.04150 22155 ft 474 kts 53°
2026-04-16 02:19 60.37238 -151.98603 21653 ft 469 kts 54°
2026-04-16 02:19 60.38965 -151.93048 21123 ft 464 kts 54°
2026-04-16 02:20 60.40680 -151.87522 20604 ft 459 kts 54°
2026-04-16 02:20 60.42386 -151.82019 20087 ft 454 kts 54°
2026-04-16 02:20 60.44070 -151.76574 19575 ft 450 kts 54°
2026-04-16 02:20 60.45719 -151.71234 19058 ft 446 kts 54°
2026-04-16 02:21 60.47378 -151.65846 18541 ft 443 kts 54°
2026-04-16 02:21 60.48996 -151.60581 17997 ft 439 kts 55°
2026-04-16 02:21 60.50608 -151.55326 17433 ft 434 kts 55°
2026-04-16 02:21 60.52195 -151.50136 16923 ft 429 kts 56°
2026-04-16 02:22 60.53834 -151.45190 16395 ft 411 kts 46°
2026-04-16 02:22 60.55994 -151.41667 15946 ft 390 kts 22°
2026-04-16 02:22 60.58481 -151.39787 15465 ft 378 kts
2026-04-16 02:22 60.61100 -151.39021 14964 ft 368 kts 358°
2026-04-16 02:23 60.63654 -151.38862 14477 ft 364 kts 356°
2026-04-16 02:23 60.66176 -151.38747 14005 ft 361 kts 357°
2026-04-16 02:23 60.68680 -151.38622 13495 ft 358 kts 358°
2026-04-16 02:23 60.71151 -151.38477 12987 ft 355 kts 358°
2026-04-16 02:24 60.73598 -151.38317 12519 ft 351 kts 358°
2026-04-16 02:24 60.75981 -151.38152 12061 ft 347 kts 358°
2026-04-16 02:24 60.78431 -151.37978 11583 ft 343 kts 358°
2026-04-16 02:24 60.80831 -151.37804 11124 ft 339 kts 358°
2026-04-16 02:25 60.83139 -151.37635 10709 ft 334 kts 358°
2026-04-16 02:25 60.85420 -151.37420 10569 ft 318 kts
2026-04-16 02:25 60.87500 -151.36101 10416 ft 307 kts 30°
2026-04-16 02:25 60.89045 -151.33187 10320 ft 296 kts 49°
2026-04-16 02:26 60.90278 -151.29938 10186 ft 283 kts 50°
2026-04-16 02:26 60.91472 -151.26827 10067 ft 272 kts 49°
2026-04-16 02:26 60.92630 -151.23813 9945 ft 265 kts 49°
2026-04-16 02:26 60.93762 -151.20861 9676 ft 267 kts 49°
2026-04-16 02:27 60.94929 -151.17818 9411 ft 270 kts 50°
2026-04-16 02:27 60.96095 -151.14775 9146 ft 278 kts 50°
2026-04-16 02:27 60.97316 -151.11581 8862 ft 284 kts 50°
2026-04-16 02:27 60.98548 -151.08355 8555 ft 286 kts 50°
2026-04-16 02:28 60.99773 -151.05143 8236 ft 283 kts 51°
2026-04-16 02:28 61.00980 -151.01971 7941 ft 278 kts 51°
2026-04-16 02:28 61.02174 -150.98833 7668 ft 273 kts 51°
2026-04-16 02:28 61.03328 -150.95796 7394 ft 268 kts 51°
2026-04-16 02:29 61.04466 -150.92798 7115 ft 263 kts 52°
2026-04-16 02:29 61.05580 -150.89858 6844 ft 258 kts 52°
2026-04-16 02:29 61.06685 -150.86941 6606 ft 258 kts 52°
2026-04-16 02:29 61.07778 -150.84051 6343 ft 260 kts 52°
2026-04-16 02:30 61.08924 -150.81018 6051 ft 265 kts 52°
2026-04-16 02:30 61.10072 -150.77973 5772 ft 268 kts 53°
2026-04-16 02:30 61.10831 -150.75958 5584 ft 267 kts 53°
2026-04-16 02:30 61.11979 -150.72911 5299 ft 264 kts 53°
2026-04-16 02:31 61.13086 -150.69969 5036 ft 262 kts 53°
2026-04-16 02:31 61.14201 -150.66998 4775 ft 260 kts 53°
2026-04-16 02:31 61.15310 -150.64040 4488 ft 258 kts 53°
2026-04-16 02:31 61.16340 -150.61042 4203 ft 253 kts 66°
2026-04-16 02:32 61.16657 -150.57505 3992 ft 248 kts 96°
2026-04-16 02:32 61.16568 -150.53906 3717 ft 251 kts 92°
2026-04-16 02:32 61.16596 -150.50343 3474 ft 250 kts 91°
2026-04-16 02:32 61.16635 -150.46764 3354 ft 237 kts 91°
2026-04-16 02:33 61.16663 -150.43421 3241 ft 225 kts 92°
2026-04-16 02:33 61.16684 -150.40270 3141 ft 211 kts 92°
2026-04-16 02:33 61.16700 -150.37363 3047 ft 198 kts 92°
2026-04-16 02:33 61.16712 -150.34493 2850 ft 190 kts 92°
2026-04-16 02:34 61.16721 -150.31780 2669 ft 188 kts 92°
2026-04-16 02:34 61.16729 -150.29087 2412 ft 185 kts 92°
2026-04-16 02:34 61.16736 -150.26441 2168 ft 183 kts 92°
2026-04-16 02:34 61.16742 -150.23802 1931 ft 182 kts 91°
2026-04-16 02:35 61.16749 -150.21146 1695 ft 181 kts 91°
2026-04-16 02:35 61.16755 -150.18553 1649 ft 181 kts 91°
2026-04-16 02:35 61.16762 -150.15948 1591 ft 181 kts 91°
2026-04-16 02:35 61.16768 -150.13343 1606 ft 181 kts 91°
2026-04-16 02:36 61.16772 -150.10748 1582 ft 180 kts 91°
2026-04-16 02:36 61.16776 -150.08146 1582 ft 180 kts 91°
2026-04-16 02:36 61.16779 -150.05596 1584 ft 180 kts 91°
2026-04-16 02:36 61.16787 -150.02928 1617 ft 189 kts 90°
2026-04-16 02:37 61.16774 -149.99801 1642 ft 238 kts 97°
2026-04-16 02:37 61.16120 -149.96614 1587 ft 241 kts 135°
2026-04-16 02:37 61.14640 -149.95073 1579 ft 242 kts 174°
2026-04-16 02:37 61.13036 -149.95887 1590 ft 241 kts 215°
2026-04-16 02:38 61.12062 -149.98637 1611 ft 241 kts 250°
2026-04-16 02:38 61.11547 -150.01843 1574 ft 237 kts 243°
2026-04-16 02:38 61.10710 -150.04831 1585 ft 237 kts 238°
2026-04-16 02:38 61.09938 -150.07919 1623 ft 243 kts 244°
2026-04-16 02:39 61.09226 -150.11131 1587 ft 244 kts 244°
2026-04-16 02:39 61.08541 -150.14232 1584 ft 240 kts 244°
2026-04-16 02:39 61.07841 -150.17385 1578 ft 238 kts 244°
2026-04-16 02:39 61.06955 -150.20179 1584 ft 234 kts 223°
2026-04-16 02:40 61.05715 -150.22398 1593 ft 238 kts 221°
2026-04-16 02:40 61.04505 -150.24812 1594 ft 243 kts 224°
2026-04-16 02:40 61.03315 -150.27298 1592 ft 242 kts 224°
2026-04-16 02:40 61.02137 -150.29756 1574 ft 238 kts 224°
2026-04-16 02:41 61.00988 -150.32148 1576 ft 236 kts 224°
2026-04-16 02:41 60.99833 -150.34586 1582 ft 236 kts 228°
2026-04-16 02:41 60.99087 -150.37614 1577 ft 241 kts 262°
2026-04-16 02:41 60.99320 -150.41013 1593 ft 250 kts 294°
2026-04-16 02:42 61.00394 -150.43707 1575 ft 247 kts 326°
2026-04-16 02:42 61.02007 -150.44874 1573 ft 245 kts 358°
2026-04-16 02:42 61.03633 -150.44099 1583 ft 240 kts 31°
2026-04-16 02:42 61.04878 -150.41931 1580 ft 236 kts 48°
2026-04-16 02:43 61.06042 -150.39444 1588 ft 241 kts 46°
2026-04-16 02:43 61.07228 -150.36980 1587 ft 243 kts 46°
2026-04-16 02:43 61.08429 -150.34481 1588 ft 243 kts 46°
2026-04-16 02:43 61.09519 -150.31957 1571 ft 235 kts 59°
2026-04-16 02:44 61.09916 -150.28708 1594 ft 234 kts 96°
2026-04-16 02:44 61.09348 -150.25563 1609 ft 236 kts 127°
2026-04-16 02:44 61.08100 -150.23411 1591 ft 236 kts 155°
2026-04-16 02:44 61.06496 -150.22785 1582 ft 237 kts 185°
2026-04-16 02:45 61.04962 -150.23919 1576 ft 238 kts 214°
2026-04-16 02:45 61.03781 -150.26272 1587 ft 233 kts 226°
2026-04-16 02:45 61.02635 -150.28727 1593 ft 239 kts 224°
2026-04-16 02:45 61.01448 -150.31183 1592 ft 242 kts 224°
2026-04-16 02:46 61.00286 -150.33596 1580 ft 241 kts 224°
2026-04-16 02:46 60.99257 -150.36312 1563 ft 234 kts 246°
2026-04-16 02:46 60.99086 -150.39621 1596 ft 241 kts 281°
2026-04-16 02:46 60.99789 -150.42734 1589 ft 246 kts 310°
2026-04-16 02:47 61.01163 -150.44822 1585 ft 246 kts 339°
2026-04-16 02:47 61.02853 -150.45207 1574 ft 244 kts 12°
2026-04-16 02:47 61.04351 -150.43770 1588 ft 241 kts 40°
2026-04-16 02:47 61.05544 -150.41302 1580 ft 236 kts 47°
2026-04-16 02:48 61.06697 -150.38878 1577 ft 241 kts 46°
2026-04-16 02:48 61.07892 -150.36398 1601 ft 243 kts 46°
2026-04-16 02:48 61.09087 -150.33908 1590 ft 243 kts 46°
2026-04-16 02:48 61.10061 -150.31193 1571 ft 232 kts 71°
2026-04-16 02:49 61.10164 -150.27865 1598 ft 236 kts 104°
2026-04-16 02:49 61.09409 -150.24869 1586 ft 237 kts 133°
2026-04-16 02:49 61.08566 -150.23444 1593 ft 236 kts 151°
2026-04-16 02:49 61.07002 -150.22528 1582 ft 236 kts 179°
2026-04-16 02:50 61.05392 -150.23310 1586 ft 237 kts 207°
2026-04-16 02:50 61.04132 -150.25410 1585 ft 236 kts 226°
2026-04-16 02:50 61.03004 -150.27890 1588 ft 237 kts 225°
2026-04-16 02:50 61.01837 -150.30339 1593 ft 239 kts 224°
2026-04-16 02:51 61.00663 -150.32789 1586 ft 241 kts 224°
2026-04-16 02:51 60.99534 -150.35329 1575 ft 237 kts 235°
2026-04-16 02:51 60.99043 -150.38507 1584 ft 240 kts 270°
2026-04-16 02:51 60.99468 -150.41755 1585 ft 244 kts 300°
2026-04-16 02:52 61.00666 -150.44298 1586 ft 246 kts 330°
2026-04-16 02:52 61.02285 -150.45279 1576 ft 246 kts
2026-04-16 02:52 61.03908 -150.44383 1583 ft 242 kts 32°
2026-04-16 02:52 61.05164 -150.42111 1581 ft 236 kts 48°
2026-04-16 02:53 61.06318 -150.39645 1594 ft 240 kts 46°
2026-04-16 02:53 61.07506 -150.37180 1592 ft 242 kts 46°
2026-04-16 02:53 61.08681 -150.34735 1591 ft 243 kts 46°
2026-04-16 02:53 61.09814 -150.32123 1568 ft 235 kts 59°
2026-04-16 02:54 61.10222 -150.29033 1594 ft 235 kts 94°
2026-04-16 02:54 61.09715 -150.25749 1592 ft 236 kts 124°
2026-04-16 02:54 61.08514 -150.23403 1598 ft 236 kts 152°
2026-04-16 02:54 61.06957 -150.22529 1580 ft 237 kts 180°
2026-04-16 02:55 61.05348 -150.23356 1589 ft 238 kts 208°
2026-04-16 02:55 61.04077 -150.25542 1590 ft 235 kts 226°
2026-04-16 02:55 61.02973 -150.27959 1584 ft 237 kts 224°
2026-04-16 02:55 61.01809 -150.30397 1589 ft 238 kts 224°
2026-04-16 02:56 61.00643 -150.32830 1588 ft 240 kts 224°
2026-04-16 02:56 60.99532 -150.35324 1579 ft 237 kts 234°
2026-04-16 02:56 60.99035 -150.38579 1584 ft 241 kts 271°
2026-04-16 02:56 60.99514 -150.41964 1588 ft 249 kts 302°
2026-04-16 02:57 61.00742 -150.44431 1571 ft 248 kts 332°
2026-04-16 02:57 61.02379 -150.45284 1570 ft 242 kts
2026-04-16 02:57 61.03931 -150.44313 1594 ft 238 kts 33°
2026-04-16 02:57 61.05205 -150.42122 1587 ft 240 kts 46°
2026-04-16 02:58 61.06395 -150.39617 1601 ft 246 kts 47°
2026-04-16 02:58 61.07600 -150.37053 1578 ft 243 kts 47°
2026-04-16 02:58 61.08784 -150.34552 1579 ft 243 kts 46°
2026-04-16 02:58 61.09872 -150.31905 1567 ft 234 kts 63°
2026-04-16 02:59 61.10193 -150.28726 1602 ft 235 kts 97°
2026-04-16 02:59 61.09635 -150.25573 1592 ft 235 kts 126°
2026-04-16 02:59 61.08432 -150.23352 1596 ft 236 kts 153°
2026-04-16 02:59 61.06843 -150.22547 1583 ft 237 kts 181°
2026-04-16 03:00 61.05256 -150.23463 1573 ft 237 kts 210°
2026-04-16 03:00 61.04024 -150.25686 1576 ft 234 kts 226°
2026-04-16 03:00 61.02895 -150.28149 1573 ft 239 kts 224°
2026-04-16 03:00 61.01720 -150.30599 1578 ft 241 kts 224°
2026-04-16 03:01 61.00538 -150.33059 1580 ft 241 kts 224°
2026-04-16 03:01 60.99429 -150.35612 1562 ft 235 kts 237°
2026-04-16 03:01 60.99025 -150.38826 1579 ft 240 kts 273°
2026-04-16 03:01 60.99557 -150.42110 1578 ft 245 kts 304°
2026-04-16 03:02 61.00804 -150.44492 1583 ft 246 kts 332°
2026-04-16 03:02 61.02444 -150.45320 1566 ft 245 kts
2026-04-16 03:02 61.04046 -150.44279 1571 ft 241 kts 34°
2026-04-16 03:02 61.05267 -150.41980 1576 ft 236 kts 48°
2026-04-16 03:03 61.06420 -150.39521 1575 ft 241 kts 46°
2026-04-16 03:03 61.07629 -150.37012 1581 ft 243 kts 46°
2026-04-16 03:03 61.08816 -150.34541 1586 ft 243 kts 46°
2026-04-16 03:03 61.09906 -150.31935 1567 ft 234 kts 62°
2026-04-16 03:04 61.10239 -150.28708 1597 ft 235 kts 97°
2026-04-16 03:04 61.09664 -150.25516 1591 ft 236 kts 126°
2026-04-16 03:04 61.08432 -150.23282 1590 ft 236 kts 153°
2026-04-16 03:04 61.06852 -150.22520 1575 ft 236 kts 182°
2026-04-16 03:05 61.05291 -150.23416 1584 ft 237 kts 209°
2026-04-16 03:05 61.04061 -150.25591 1577 ft 235 kts 226°
2026-04-16 03:05 61.02939 -150.28054 1578 ft 240 kts 224°
2026-04-16 03:05 61.01732 -150.30574 1584 ft 243 kts 224°
2026-04-16 03:06 61.00536 -150.33065 1580 ft 242 kts 224°
2026-04-16 03:06 60.99444 -150.35616 1557 ft 233 kts 238°
2026-04-16 03:06 60.99563 -150.42076 1584 ft 244 kts 303°
2026-04-16 03:07 61.00829 -150.44526 1580 ft 246 kts 333°
2026-04-16 03:07 61.02462 -150.45331 1570 ft 245 kts
2026-04-16 03:07 61.04064 -150.44258 1576 ft 242 kts 35°
2026-04-16 03:07 61.04907 -150.42767 1576 ft 238 kts 47°
2026-04-16 03:08 61.06042 -150.40312 1573 ft 240 kts 46°
2026-04-16 03:08 61.07224 -150.37856 1576 ft 242 kts 46°
2026-04-16 03:08 61.08427 -150.35355 1584 ft 243 kts 46°
2026-04-16 03:08 61.09596 -150.32845 1571 ft 238 kts 52°
2026-04-16 03:09 61.10243 -150.29816 1576 ft 234 kts 87°
2026-04-16 03:09 61.09949 -150.26525 1601 ft 235 kts 117°
2026-04-16 03:09 61.08904 -150.23905 1591 ft 236 kts 144°
2026-04-16 03:09 61.07377 -150.22590 1575 ft 236 kts 172°
2026-04-16 03:10 61.05757 -150.22980 1570 ft 236 kts 200°
2026-04-16 03:10 61.04410 -150.24839 1582 ft 236 kts 224°
2026-04-16 03:10 61.03295 -150.27306 1580 ft 238 kts 225°
2026-04-16 03:10 61.02117 -150.29773 1587 ft 242 kts 224°
2026-04-16 03:11 61.00958 -150.32185 1589 ft 242 kts 224°
2026-04-16 03:11 60.99770 -150.34713 1566 ft 237 kts 229°
2026-04-16 03:11 60.99081 -150.37634 1574 ft 238 kts 262°
2026-04-16 03:11 60.99307 -150.41091 1584 ft 243 kts 294°
2026-04-16 03:12 61.00335 -150.43847 1593 ft 246 kts 322°
2026-04-16 03:12 61.01895 -150.45244 1570 ft 246 kts 353°
2026-04-16 03:12 61.03565 -150.44778 1569 ft 242 kts 26°
2026-04-16 03:12 61.04896 -150.42749 1582 ft 237 kts 47°
2026-04-16 03:13 61.06027 -150.40306 1580 ft 239 kts 46°
2026-04-16 03:13 61.07220 -150.37823 1587 ft 242 kts 46°
2026-04-16 03:13 61.08412 -150.35341 1583 ft 243 kts 46°
2026-04-16 03:13 61.09573 -150.32843 1573 ft 238 kts 52°
2026-04-16 03:14 61.10220 -150.29791 1591 ft 234 kts 87°
2026-04-16 03:14 61.09917 -150.26472 1585 ft 236 kts 117°
2026-04-16 03:14 61.08878 -150.23898 1592 ft 236 kts 144°
2026-04-16 03:14 61.07368 -150.22606 1572 ft 236 kts 172°
2026-04-16 03:15 61.05753 -150.22993 1578 ft 236 kts 200°
2026-04-16 03:15 61.04390 -150.24884 1581 ft 237 kts 225°
2026-04-16 03:15 61.03285 -150.27332 1577 ft 237 kts 225°
2026-04-16 03:15 61.02112 -150.29790 1584 ft 241 kts 224°
2026-04-16 03:16 61.00906 -150.32297 1592 ft 242 kts 224°
2026-04-16 03:16 60.99748 -150.34765 1577 ft 237 kts 229°
2026-04-16 03:16 60.99065 -150.37741 1569 ft 238 kts 263°
2026-04-16 03:16 60.99309 -150.41149 1594 ft 244 kts 294°
2026-04-16 03:17 61.00339 -150.43881 1585 ft 246 kts 323°
2026-04-16 03:17 61.01907 -150.45277 1572 ft 245 kts 353°
2026-04-16 03:17 61.03565 -150.44815 1583 ft 241 kts 25°
2026-04-16 03:17 61.04907 -150.42799 1748 ft 239 kts 47°
2026-04-16 03:18 61.05714 -150.41049 1776 ft 244 kts 47°
2026-04-16 03:18 61.06394 -150.39617 1900 ft 246 kts 46°
2026-04-16 03:18 61.07622 -150.37064 2282 ft 247 kts 47°
2026-04-16 03:18 61.08852 -150.34547 2588 ft 248 kts 42°
2026-04-16 03:19 61.10447 -150.32960 2682 ft 255 kts
2026-04-16 03:19 61.12128 -150.33703 3056 ft 252 kts 329°
2026-04-16 03:19 61.13658 -150.35628 2982 ft 252 kts 332°
2026-04-16 03:19 61.15372 -150.36303 3000 ft 256 kts
2026-04-16 03:20 61.16936 -150.34697 3001 ft 255 kts 49°
2026-04-16 03:20 61.17673 -150.31468 2979 ft 241 kts 89°
2026-04-16 03:20 61.17307 -150.28277 2956 ft 221 kts 121°
2026-04-16 03:20 61.16712 -150.25532 2771 ft 198 kts 102°
2026-04-16 03:21 61.16683 -150.24832 2706 ft 196 kts 92°
2026-04-16 03:21 61.16852 -150.22173 2512 ft 174 kts 89°
2026-04-16 03:21 61.16799 -150.20365 2252 ft 165 kts 99°
2026-04-16 03:21 61.16767 -150.18028 1943 ft 152 kts 89°
2026-04-16 03:22 61.16838 -150.15868 1512 ft 143 kts 88°
2026-04-16 03:22 61.16879 -150.13832 1152 ft 140 kts 93°
2026-04-16 03:22 61.16807 -150.12047 938 ft 140 kts 96°
2026-04-16 03:22 61.16740 -150.10004 681 ft 140 kts 89°
2026-04-16 03:23 61.16782 -150.07985 423 ft 139 kts 88°
2026-04-16 03:23 61.16784 -150.05981 240 ft 139 kts 88°
2026-04-16 03:23 61.16787 -150.03981 175 ft 133 kts 88°
2026-04-16 03:23 61.16787 -150.02202 137 ft 106 kts 90°
2026-04-16 03:24 61.16789 -150.01050 127 ft 55 kts 89°
2026-04-16 03:24 61.16793 -150.00476 125 ft 37 kts 89°
2026-04-16 03:24 61.16798 -150.00013 121 ft 8 kts 89°
2026-04-16 03:24 61.16801 -149.99933 123 ft 6 kts 86°
2026-04-16 03:25 61.16806 -149.99837 123 ft 10 kts 82°
2026-04-16 03:25 61.16859 -149.99544 121 ft 23 kts 59°
2026-04-16 03:25 61.16954 -149.99348 127 ft 16 kts 16°
2026-04-16 03:25 61.17044 -149.99213 134 ft 16 kts 41°
2026-04-16 03:26 61.17124 -149.99098 123 ft 8 kts 354°
2026-04-16 03:26 61.17194 -149.99120 126 ft 13 kts 351°
2026-04-16 03:26 61.17297 -149.99175 119 ft 16 kts 343°
2026-04-16 03:26 61.17416 -149.99261 116 ft 19 kts 339°
2026-04-16 03:27 61.17497 -149.99259 116 ft 7 kts 49°
2026-04-16 03:27 61.17519 -149.99160 113 ft 1 kts 67°
2026-04-16 03:27 61.17519 -149.99157 111 ft 0 kts 67°